When you browse on this site, cookies collect data to enhance your experience and personalize the content and advertising you see.
Visit our Privacy Policy to learn more. By continuing to use the site, you agree to this use of cookies and data.
  • In Portugal
  • List of Countries
  • For 7 days
  • Water Temperature
  • Weather Map
  • Weather Widgets
  • user-avatar
    Login

    Hourly Weather Zarka

    Today, 21 August, Wednesday

    Time Temperature Precipitation Wind Pressure Humidity
    00:00 +19°C° 0 mm 2 mps 702 mmHg 91%
    01:00 +19°C° 0 mm 2 mps 702 mmHg 93%
    02:00 +19°C° 0 mm 1 mps 702 mmHg 95%
    03:00 +19°C° 0 mm 1 mps 702 mmHg 94%
    04:00 +18°C° 0 mm 2 mps 702 mmHg 94%
    05:00 +18°C° 0 mm 2 mps 702 mmHg 93%
    06:00 +20°C° 0 mm 2 mps 703 mmHg 82%
    07:00 +24°C° 0 mm 3 mps 703 mmHg 70%
    08:00 +26°C° 0 mm 4 mps 704 mmHg 59%
    09:00 +28°C° 0 mm 4 mps 704 mmHg 49%
    10:00 +30°C° 0 mm 4 mps 704 mmHg 39%
    11:00 +33°C° 0 mm 4 mps 704 mmHg 29%
    12:00 +34°C° 0 mm 5 mps 704 mmHg 26%
    13:00 +36°C° 0 mm 5 mps 704 mmHg 22%
    14:00 +38°C° 0 mm 6 mps 703 mmHg 19%
    15:00 +35°C° 0 mm 6 mps 703 mmHg 22%
    16:00 +34°C° 0 mm 6 mps 703 mmHg 26%
    17:00 +33°C° 0 mm 6 mps 702 mmHg 29%
    18:00 +29°C° 0 mm 5 mps 702 mmHg 38%
    19:00 +26°C° 0 mm 4 mps 702 mmHg 47%
    20:00 +22°C° 0 mm 3 mps 702 mmHg 56%
    21:00 +21°C° 0 mm 3 mps 702 mmHg 59%
    22:00 +20°C° 0 mm 2 mps 702 mmHg 62%
    23:00 +19°C° 0 mm 2 mps 702 mmHg 65%

    Tomorrow, 22 August, Thursday

    Time Temperature Precipitation Wind Pressure Humidity
    00:00 +19°C° 0 mm 2 mps 701 mmHg 69%
    01:00 +19°C° 0 mm 1 mps 701 mmHg 72%
    02:00 +18°C° 0 mm 1 mps 701 mmHg 76%
    03:00 +18°C° 0 mm 1 mps 701 mmHg 75%
    04:00 +18°C° 0 mm 1 mps 701 mmHg 74%
    05:00 +18°C° 0 mm 1 mps 701 mmHg 73%
    06:00 +21°C° 0 mm 1 mps 702 mmHg 62%
    07:00 +24°C° 0 mm 1 mps 702 mmHg 50%
    08:00 +27°C° 0 mm 1 mps 703 mmHg 39%
    09:00 +29°C° 0 mm 1 mps 703 mmHg 32%
    10:00 +31°C° 0 mm 1 mps 703 mmHg 25%
    11:00 +35°C° 0 mm 2 mps 703 mmHg 19%
    12:00 +36°C° 0 mm 3 mps 703 mmHg 17%
    13:00 +38°C° 0 mm 3 mps 702 mmHg 15%
    14:00 +40°C° 0 mm 4 mps 702 mmHg 13%
    15:00 +39°C° 0 mm 5 mps 702 mmHg 19%
    16:00 +36°C° 0 mm 5 mps 701 mmHg 25%
    17:00 +35°C° 0 mm 6 mps 701 mmHg 30%
    18:00 +32°C° 0 mm 4 mps 701 mmHg 39%
    19:00 +28°C° 0 mm 3 mps 701 mmHg 48%
    20:00 +25°C° 0 mm 2 mps 701 mmHg 57%
    21:00 +25°C° 0 mm 2 mps 701 mmHg 58%
    22:00 +24°C° 0 mm 2 mps 701 mmHg 59%
    23:00 +24°C° 0 mm 2 mps 701 mmHg 60%

    Day after tomorrow, 23 August, Friday

    Time Temperature Precipitation Wind Pressure Humidity
    00:00 +23°C° 0 mm 2 mps 700 mmHg 60%
    01:00 +23°C° 0 mm 2 mps 700 mmHg 59%
    02:00 +21°C° 0 mm 2 mps 700 mmHg 59%
    03:00 +21°C° 0 mm 1 mps 700 mmHg 63%
    04:00 +21°C° 0 mm 1 mps 700 mmHg 68%
    05:00 +18°C° 0 mm 0 mps 700 mmHg 72%
    06:00 +23°C° 0 mm 1 mps 701 mmHg 58%
    07:00 +26°C° 0 mm 1 mps 701 mmHg 45%
    08:00 +30°C° 0 mm 1 mps 702 mmHg 31%
    09:00 +32°C° 0 mm 2 mps 702 mmHg 25%
    10:00 +36°C° 0 mm 2 mps 702 mmHg 20%
    11:00 +38°C° 0 mm 2 mps 702 mmHg 15%
    12:00 +39°C° 0 mm 2 mps 701 mmHg 14%
    13:00 +41°C° 0 mm 2 mps 701 mmHg 13%
    14:00 +42°C° 0 mm 2 mps 700 mmHg 12%
    15:00 +41°C° 0 mm 4 mps 700 mmHg 16%
    16:00 +40°C° 0 mm 5 mps 700 mmHg 21%
    17:00 +39°C° 0 mm 7 mps 699 mmHg 25%
    18:00 +35°C° 0 mm 5 mps 699 mmHg 32%
    19:00 +32°C° 0 mm 4 mps 699 mmHg 40%
    20:00 +28°C° 0 mm 3 mps 699 mmHg 47%
    21:00 +27°C° 0 mm 3 mps 699 mmHg 48%
    22:00 +27°C° 0 mm 3 mps 699 mmHg 49%
    23:00 +26°C° 0 mm 3 mps 699 mmHg 50%

    24 August, Saturday

    Time Temperature Precipitation Wind Pressure Humidity
    00:00 +26°C° 0 mm 3 mps 699 mmHg 51%
    01:00 +25°C° 0 mm 2 mps 699 mmHg 53%
    02:00 +24°C° 0 mm 2 mps 699 mmHg 55%
    03:00 +24°C° 0 mm 2 mps 699 mmHg 60%
    04:00 +23°C° 0 mm 2 mps 699 mmHg 65%
    05:00 +22°C° 0 mm 3 mps 699 mmHg 70%
    06:00 +25°C° 0 mm 3 mps 700 mmHg 62%
    07:00 +27°C° 0 mm 3 mps 700 mmHg 54%
    08:00 +29°C° 0 mm 3 mps 701 mmHg 47%
    09:00 +31°C° 0 mm 3 mps 701 mmHg 41%
    10:00 +34°C° 0 mm 4 mps 701 mmHg 34%
    11:00 +36°C° 0 mm 4 mps 702 mmHg 28%
    12:00 +37°C° 0 mm 4 mps 702 mmHg 27%
    13:00 +39°C° 0 mm 5 mps 701 mmHg 25%
    14:00 +40°C° 0 mm 5 mps 701 mmHg 23%
    15:00 +39°C° 0 mm 6 mps 701 mmHg 28%
    16:00 +36°C° 0 mm 6 mps 701 mmHg 33%
    17:00 +35°C° 0 mm 7 mps 701 mmHg 38%
    18:00 +32°C° 0 mm 6 mps 701 mmHg 46%
    19:00 +29°C° 0 mm 4 mps 701 mmHg 55%
    20:00 +26°C° 0 mm 3 mps 701 mmHg 63%
    21:00 +26°C° 0 mm 3 mps 701 mmHg 63%
    22:00 +25°C° 0 mm 2 mps 701 mmHg 62%
    23:00 +24°C° 0 mm 2 mps 701 mmHg 62%

    25 August, Sunday

    Time Temperature Precipitation Wind Pressure Humidity
    00:00 +24°C° 0 mm 2 mps 701 mmHg 62%
    01:00 +23°C° 0 mm 2 mps 700 mmHg 62%
    02:00 +23°C° 0 mm 2 mps 700 mmHg 62%
    03:00 +23°C° 0 mm 2 mps 700 mmHg 63%
    04:00 +22°C° 0 mm 1 mps 700 mmHg 63%
    05:00 +22°C° 0 mm 1 mps 700 mmHg 64%
    06:00 +25°C° 0 mm 2 mps 701 mmHg 55%
    07:00 +27°C° 0 mm 2 mps 702 mmHg 46%
    08:00 +30°C° 0 mm 2 mps 703 mmHg 36%
    09:00 +33°C° 0 mm 3 mps 703 mmHg 31%
    10:00 +35°C° 0 mm 3 mps 703 mmHg 26%
    11:00 +37°C° 0 mm 4 mps 703 mmHg 21%
    12:00 +38°C° 0 mm 4 mps 703 mmHg 20%
    13:00 +40°C° 0 mm 5 mps 703 mmHg 18%
    14:00 +40°C° 0 mm 6 mps 702 mmHg 17%
    15:00 +39°C° 0 mm 6 mps 702 mmHg 20%
    16:00 +38°C° 0 mm 7 mps 702 mmHg 24%
    17:00 +36°C° 0 mm 7 mps 702 mmHg 27%
    18:00 +33°C° 0 mm 6 mps 702 mmHg 34%
    19:00 +29°C° 0 mm 4 mps 702 mmHg 40%
    20:00 +26°C° 0 mm 3 mps 702 mmHg 47%
    21:00 +25°C° 0 mm 2 mps 702 mmHg 45%
    22:00 +25°C° 0 mm 2 mps 702 mmHg 44%
    23:00 +24°C° 0 mm 1 mps 701 mmHg 42%

    26 August, Monday

    Time Temperature Precipitation Wind Pressure Humidity
    00:00 +23°C° 0 mm 1 mps 701 mmHg 40%
    01:00 +23°C° 0 mm 1 mps 701 mmHg 38%
    02:00 +23°C° 0 mm 1 mps 701 mmHg 36%
    03:00 +22°C° 0 mm 1 mps 701 mmHg 36%
    04:00 +22°C° 0 mm 1 mps 701 mmHg 36%
    05:00 +22°C° 0 mm 1 mps 701 mmHg 35%
    06:00 +25°C° 0 mm 1 mps 702 mmHg 30%
    07:00 +28°C° 0 mm 1 mps 703 mmHg 24%
    08:00 +31°C° 0 mm 1 mps 703 mmHg 18%
    09:00 +34°C° 0 mm 2 mps 704 mmHg 16%
    10:00 +36°C° 0 mm 2 mps 704 mmHg 14%
    11:00 +38°C° 0 mm 3 mps 704 mmHg 12%
    12:00 +40°C° 0 mm 4 mps 704 mmHg 12%
    13:00 +41°C° 0 mm 4 mps 703 mmHg 12%
    14:00 +41°C° 0 mm 5 mps 703 mmHg 12%
    15:00 +40°C° 0 mm 5 mps 703 mmHg 15%
    16:00 +39°C° 0 mm 5 mps 702 mmHg 17%
    17:00 +37°C° 0 mm 5 mps 702 mmHg 20%
    18:00 +34°C° 0 mm 4 mps 702 mmHg 24%
    19:00 +31°C° 0 mm 3 mps 702 mmHg 28%
    20:00 +28°C° 0 mm 3 mps 702 mmHg 33%
    21:00 +27°C° 0 mm 2 mps 702 mmHg 34%
    22:00 +26°C° 0 mm 2 mps 702 mmHg 35%
    23:00 +24°C° 0 mm 1 mps 702 mmHg 36%
    Show more